Weather History for Ardmore, OK

Change the Weather History Date:

Friday, May 3, 2013

  Actual Average Record
Temperature  
Mean Temperature 36 °F -  
Max Temperature 66 °F 77 °F 89 °F (2012)
Min Temperature 32 °F 57 °F 32 °F (2011)
Degree Days  
Heating Degree Days 30    
Moisture  
Dew Point 30 °F    
Average Humidity 81    
Maximum Humidity 89    
Minimum Humidity 66    
Precipitation  
Precipitation 0.00 in - - ()
Sea Level Pressure  
Sea Level Pressure 30.29 in    
Wind  
Wind Speed 6 mph (NW)    
Max Wind Speed 8 mph    
Max Gust Speed -    
Visibility 10 miles    
Events      
Averages and records for this station are not official NWS values.
T = Trace of Precipitation, MM = Missing Value Source: NWS Daily Summary

Daily Weather History Graph

Daily Weather History Graph

Search for Another Location

Airport:

Trip Planner

Search our weather history database for the weather conditions in past years. The results will help you decide how hot, cold, wet, or windy it might be!

Date:

Astronomy

May. 03, 2013 Rise Set
Actual Time 6:36 AM CDT 8:14 PM CDT
Civil Twilight 6:09 AM CDT 8:41 PM CDT
Nautical Twilight 5:36 AM CDT 9:13 PM CDT
Astronomical Twilight 5:02 AM CDT 9:47 PM CDT
Moon 2:44 AM CDT (5/3) 2:25 PM CDT (5/3)
Length of Visible Light 14h 31m
Length of Day
13h 38m
Last Quarter, 37% of the Moon is Illuminated
May 3
Last Quarter
May 9
New
May 17
First Quarter
May 24
Full
May 31
Last Quarter

Hourly Weather History & Observations

Time (CDT) Temp. Windchill Dew Point Humidity Pressure Visibility Wind Dir Wind Speed Gust Speed Precip Events Conditions
12:15 AM 39.9 °F 35.1 °F 31.1 °F 71% 30.35 in 10.0 mi North 6.9 mph - N/A   Clear
12:35 AM 38.7 °F 34.3 °F 31.1 °F 74% 30.35 in 10.0 mi NW 5.8 mph - N/A   Clear
12:55 AM 37.4 °F 32.1 °F 31.1 °F 78% 30.35 in 10.0 mi NNW 6.9 mph - N/A   Clear
1:15 AM 37.8 °F 33.3 °F 31.1 °F 77% 30.34 in 10.0 mi NW 5.8 mph - N/A   Clear
1:35 AM 37.4 °F 32.1 °F 31.5 °F 79% 30.33 in 10.0 mi NNW 6.9 mph - N/A   Clear
1:55 AM 37.4 °F 33.8 °F 31.5 °F 79% 30.33 in 10.0 mi NNW 4.6 mph - N/A   Clear
2:15 AM 36.7 °F 31.2 °F 31.5 °F 81% 30.32 in 10.0 mi North 6.9 mph - N/A   Clear
2:35 AM 36.3 °F 31.6 °F 31.1 °F 81% 30.32 in 10.0 mi NW 5.8 mph - N/A   Clear
2:55 AM 35.1 °F 31.0 °F 30.7 °F 84% 30.31 in 10.0 mi NW 4.6 mph - N/A   Clear
3:15 AM 35.6 °F 29.2 °F 31.5 °F 85% 30.31 in 10.0 mi NW 8.1 mph - N/A   Clear
3:35 AM 36.0 °F 29.6 °F 31.6 °F 84% 30.30 in 10.0 mi NNW 8.1 mph - N/A   Clear
3:55 AM 35.6 °F 29.9 °F 31.1 °F 84% 30.30 in 10.0 mi NW 6.9 mph - N/A   Clear
4:15 AM 35.6 °F 29.2 °F 31.3 °F 84% 30.30 in 10.0 mi NW 8.1 mph - N/A   Clear
4:35 AM 34.3 °F 29.2 °F 30.2 °F 85% 30.30 in 10.0 mi NW 5.8 mph - N/A   Clear
4:55 AM 33.8 °F 28.6 °F 30.0 °F 86% 30.30 in 10.0 mi NW 5.8 mph - N/A   Clear
5:15 AM 33.1 °F 30.0 °F 29.7 °F 87% 30.30 in 10.0 mi WNW 3.5 mph - N/A   Clear
5:35 AM 33.1 °F 28.7 °F 30.0 °F 89% 30.29 in 10.0 mi WNW 4.6 mph - N/A   Clear
5:55 AM 33.4 °F 29.1 °F 30.2 °F 88% 30.29 in 10.0 mi NW 4.6 mph - N/A   Clear
6:15 AM 32.2 °F 27.7 °F 28.2 °F 85% 30.28 in 10.0 mi West 4.6 mph - N/A   Clear
6:35 AM 32.0 °F 27.5 °F 28.4 °F 87% 30.28 in 10.0 mi West 4.6 mph - N/A   Clear
11:35 PM 38.5 °F - 27.9 °F 66% 30.03 in 10.0 mi Calm Calm - N/A   Clear
11:55 PM 38.3 °F - 28.9 °F 69% 30.03 in 10.0 mi Calm Calm - N/A   Clear